#timestamp,LO_Frequency,Hit,StdDev 
1514466015.0,286047004.7,P
1514466015.9,286047004.7,P
1514466035.8,286047007.3,P
1514466055.6,286047006.4,Y
1514466075.4,286047003.5,P
1514466095.3,286047004.9,P
1514466115.1,286047005.3,P
1514466135.9,286047005.4,Y
1514466155.7,286047000.1,P
1514466175.5,286047001.6,N
1514466195.4,286047001.3,N
1514466215.2,286047001.7,N
1514466235.0,286047002.9,N
1514466235.9,286047002.9,N
1514466255.8,286047003.7,N
1514466275.6,286047002.0,N
1514466295.5,286047002.1,N
1514466315.3,286047004.0,Y
1514466335.1,286047000.5,P
1514466355.9,286047000.1,N
1514466375.7,286046999.9,N
1514466395.6,286047000.4,N
1514466415.4,286047002.4,N
1514466435.2,286047004.4,Y
1514466455.1,286047005.4,P
1514466456.0,286047005.4,N
1514466475.8,286047009.4,P
1514466495.6,286047016.5,Y
1514466515.5,286047015.7,P
1514466535.3,286047021.1,P
1514466555.2,286047027.2,P
1514466575.9,286047032.8,Y
1514466595.7,286047017.6,P
1514466615.6,286047021.3,P
1514466635.4,286047025.2,P
1514466655.3,286047029.9,Y
1514466675.1,286047010.9,P
1514466676.0,286047010.9,N
1514466695.8,286047014.9,P
1514466715.7,286047017.0,Y
1514466735.5,286047003.7,P
1514466755.4,286047006.0,N
1514466775.2,286047004.9,N
1514466795.0,286047010.7,N
1514466795.9,286047010.7,N
1514466815.8,286047010.6,N
1514466835.6,286047009.3,N
1514466855.4,286047010.2,Y
1514466875.3,286047002.7,P
1514466895.1,286047002.8,N
1514466915.9,286047000.4,N
1514466935.7,286047002.1,N
1514466955.5,286047003.6,N
1514466975.4,286047003.4,N
1514466995.2,286047003.0,N
1514467015.1,286047002.9,N
1514467016.0,286047002.9,N
1514467035.8,286047004.3,N
1514467055.6,286047002.4,N
1514467075.5,286047003.8,N
1514467095.3,286047005.6,Y
1514467115.1,286047002.4,P
1514467135.9,286047000.2,N
1514467155.7,286047000.8,N
1514467175.6,286047000.7,N
1514467195.4,286046998.9,N
1514467215.2,286047000.6,N
1514467235.1,286046999.8,N
1514467236.0,286046999.8,N
1514467255.8,286047002.7,N
1514467275.7,286047002.8,N
1514467295.5,286047004.4,Y
1514467315.3,286047003.9,P
1514467335.2,286047003.0,N
1514467355.0,286047004.5,P
1514467355.9,286047004.5,Y
1514467375.8,286047001.3,P
1514467395.6,286047003.2,P
1514467415.4,286047004.0,P
1514467435.3,286047001.7,N
1514467455.1,286047003.8,Y
1514467475.8,286047001.2,P
1514467495.7,286046999.5,N
1514467515.5,286046999.6,N
1514467535.4,286046995.3,Y
1514467555.2,286046995.8,P
1514467575.0,286046994.5,N
1514467575.9,286046994.5,N
1514467595.8,286046992.2,Y
1514467615.6,286046999.5,P
1514467635.5,286046998.2,N
1514467655.3,286046999.9,N
1514467675.1,286047000.1,N
1514467695.9,286046999.8,N
1514467715.7,286047002.6,N
1514467735.5,286047004.4,N
1514467755.4,286047004.1,N
1514467775.2,286047005.3,N
1514467795.1,286047005.6,N
1514467796.0,286047005.6,N
1514467815.8,286047004.3,N
1514467835.6,286047001.5,N
1514467855.5,286047001.6,N
1514467875.3,286047002.5,N
1514467895.1,286047004.4,N
1514467915.9,286047004.0,N
1514467935.7,286047003.4,N
1514467955.6,286047001.3,N
1514467975.4,286047004.3,N
1514467995.2,286047003.1,N
1514468015.1,286047002.9,N
1514468016.0,286047002.9,N
1514468035.8,286047005.1,N
1514468055.7,286047003.9,N
1514468075.5,286047003.1,N
1514468095.3,286047004.7,N
1514468115.2,286047005.3,N
1514468135.0,286047007.4,Y
1514468135.9,286047007.4,P
1514468155.8,286047003.2,N
1514468175.6,286047002.1,N
1514468195.4,286047002.5,N
1514468215.3,286047001.3,N
1514468235.1,286047003.7,N
1514468255.8,286047003.6,N
1514468275.7,286047003.7,N
1514468295.5,286047004.7,N
1514468315.4,286047005.6,Y
1514468335.2,286047002.1,P
1514468355.0,286047002.0,N
1514468355.9,286047002.0,N
1514468375.8,286046999.8,N
1514468395.6,286047004.0,Y
1514468415.5,286047002.5,P
1514468435.3,286047002.0,P
1514468455.1,286047004.0,P
1514468475.9,286047001.8,N
1514468495.7,286047000.1,N
1514468515.5,286047002.3,N
1514468535.4,286047001.4,N
1514468555.2,286047002.5,N
1514468575.1,286047002.2,N
1514468576.0,286047002.2,N
1514468595.8,286046999.8,N
1514468615.6,286047002.6,N
1514468635.5,286047002.0,N
1514468655.3,286047001.9,N
1514468675.2,286047005.6,Y
1514468695.9,286047001.3,P
1514468715.7,286047003.8,P
1514468735.6,286047001.6,N
1514468755.4,286047002.6,N
1514468775.2,286047002.1,N
1514468795.1,286047004.4,Y
1514468796.0,286047004.4,P
1514468815.8,286047002.4,N
1514468835.7,286047002.2,N
1514468855.5,286047003.9,Y
1514468875.3,286046998.2,P
1514468895.2,286046996.7,N
1514468915.0,286046997.2,N
1514468915.9,286046997.2,N
1514468935.8,286046996.9,N
1514468955.6,286046995.5,N
1514468975.4,286046995.2,N
1514468995.3,286046997.7,N
1514469015.1,286046995.2,N
1514469035.8,286046995.4,N
1514469055.7,286046999.3,N
1514469075.5,286046999.6,N
1514469095.4,286046999.0,N
1514469115.2,286046997.5,N
1514469135.0,286046997.0,N
1514469135.9,286046997.0,N
1514469155.8,286046997.7,N
1514469175.6,286046997.4,N
1514469195.5,286046998.6,N
1514469215.3,286047000.3,N
1514469235.1,286047000.8,N
1514469255.9,286047001.1,N
1514469275.7,286046998.1,N
1514469295.5,286047000.5,N
1514469315.4,286047000.2,N
1514469335.2,286047000.1,N
1514469355.1,286047000.9,N
1514469356.0,286047000.9,N
1514469375.8,286047000.9,N
1514469395.6,286047000.5,N
1514469415.5,286047000.9,N
1514469435.3,286046998.5,N
1514469455.2,286046998.8,N
1514469475.9,286046999.8,N
1514469495.7,286047001.6,N
1514469515.6,286047003.2,N
1514469535.4,286047003.1,N
1514469555.2,286047003.7,N
1514469575.1,286047003.7,N
1514469576.0,286047003.7,N
1514469595.8,286047003.5,N
